www.pogodaiklimat.ru

Погода и климат >> Архив погоды >> Россия >> Ростовская область >> Ремонтное


АРХИВ ПОГОДЫ в Ремонтном

Время (UTC), дата Ветер
(напр.,м/с)
 
Видим.   Явления Облачность Т
(С)
Тd
(С)
f
(%)
Тe
(С)
Тes
(С)
Комфортность P
(гПа)
Po
(гПа)
Тmin
(С)
Tmax
(С)
R
(мм)
R24
(мм)
S
(см)
18 13.07 С 2 10 км 4/3 600 м
[Cb cap Ac trans]
+17.9 +14.6 81 +18 +18 1010.4 998.0
21 13.07 ЮЗ 1 4000 м дымка 4/1 600 м
[Sc Ac trans]
+15.2 +13.6 90 +16 +16 1010.6 998.0
00 14.07 ЮВ 1 4000 м дымка ясно +13.6 +12.5 93 +14 +14 1009.8 997.2
03 14.07 ЮЗ 1 4000 м дымка 9/8 300 м
[Cb cap Ci fib]
+15.2 +14.1 93 +16 +16 1010.5 998.0 +13.4
06 14.07 З 3 10 км 9/6 600 м
[Sc diur, vesp Ci fib]
+20.7 +14.3 67 +24 +27 комфорт 1010.2 997.9
09 14.07 С 3 10 км 9/8 600 м
[Cu med, cong Ci fib]
+24.1 +12.7 49 +26 +29 жарко 1009.7 997.5
12 14.07 СЗ 3 20 км 8/6 600 м
[Cu med, cong Ci fib]
+26.1 +10.3 37 +27 +30 жарко 1008.9 996.8
15 14.07 СЗ 1 10 км 4/4 600 м
[Cu med, cong]
+26.0 +9.3 35 +26 +28 жарко 1008.6 996.5 +27.3
18 14.07 З 1 10 км 1/0
[Ci fib]
+19.0 +13.6 71 +21 +21 комфорт 1009.3 996.9
21 14.07 ЮВ 1 10 км 10/0
[Ci]
+16.4 +13.7 84 +17 +17 1009.0 996.5
00 15.07 Ю 1 4000 м дымка 3/0
[Cc]
+14.9 +13.4 91 +15 +15 1008.4 995.8
03 15.07 штиль 0 4000 м дымка ясно +17.5 +14.6 83 +17 +19 1008.5 996.1 +14.5
06 15.07 В 2 10 км ясно +26.4 +10.1 36 +27 +38 жарко 1007.6 995.6
09 15.07 В 2 20 км 10/3 600 м
[Cu hum Ac lent]
+28.7 +9.2 30 +29 +31 жарко 1006.6 994.7
12 15.07 В 3
{11}
20 км 9/4 600 м
[Cu hum Ac lent Ci fib]
+29.6 +7.5 25 +29 +32 жарко 1005.6 993.7
15 15.07 В 3 20 км 10/8 600 м
[Sc Ac trans Ci fib]
+28.8 +7.9 27 +28 +28 жарко 1004.9 992.9 +30.3
18 15.07 В 4 10 км 10/10 600 м
[Sc]
+25.5 +10.5 39 +26 +26 жарко 1005.9 993.9
21 15.07 штиль 0 10 км 10/10 600 м
[Sc]
+22.6 +11.6 50 +25 +25 комфорт 1007.1 994.9
00 16.07 ЮВ 1 10 км гроза, ливневой дождь 10/10 600 м
[Cb cap]
+18.4 +15.8 85 +20 +20 1006.9 994.5
03 16.07 СВ 1 4000 м слаб. ливневой дождь {гроза} 10/10 600 м
[Cb cap]
+17.9 +16.4 91 +19 +19 1007.5 995.1 +17.5 5
06 16.07 В 2 10 км {гроза, ливн. осадки} 10/10 600 м
[Cb cap]
+19.0 +15.7 81 +21 +21 комфорт 1007.5 995.1
09 16.07 В 3 10 км 8/6 600 м
[Sc diur, vesp Ac lent Ci fib]
+24.4 +14.8 55 +27 +32 жарко 1006.8 994.7
12 16.07 ЮВ 2 20 км 3/3 600 м
[Cu hum Ac trans Ci fib]
+27.5 +14.2 44 +30 +38 жарко 1005.5 993.5
15 16.07 ЮВ 1 20 км 8/1 600 м
[Cu hum Ac trans Ci fib]
+27.8 +13.3 41 +30 +31 жарко 1005.2 993.2 +28.2 0.8
18 16.07 З 4 10 км гроза без осадков 9/8 600 м
[Cb cap Ci fib]
+22.0 +15.6 67 +26 +26 душно 1007.6 995.4
21 16.07 З 3
{15}
10 км зарница {гроза, ливн. осадки} 3/3 600 м
[Cb cap]
+19.2 +15.3 78 +21 +21 комфорт 1007.9 995.6
00 17.07 ЮЗ 2 10 км {гроза, ливн. осадки} 10/10 600 м
[Sc diur, vesp]
+18.4 +15.8 85 +20 +20 1008.5 996.1
03 17.07 З 3 4000 м дымка 3/3 600 м
[Sc diur, vesp]
+18.6 +15.7 83 +20 +20 1008.7 996.3 +16.2 22
06 17.07 З 5 10 км 1/1 600 м
[Cu hum]
+22.5 +16.1 67 +27 +32 душно 1007.9 995.7
09 17.07 З 4
{10}
10 км 3/3 600 м
[Cu hum Ci fib]
+27.3 +13.5 43 +29 +38 жарко 1007.3 995.3
12 17.07 З 3
{10}
10 км 6/5 600 м
[Cu hum Ci fib]
+29.3 +10.9 32 +30 +34 жарко 1006.7 994.8
15 17.07 С 2 10 км 4/3 600 м
[Cu hum Ci fib]
+28.9 +10.5 32 +29 +30 жарко 1006.6 994.7 +29.8
18 17.07 СВ 1 10 км 3/0
[Ci fib]
+22.3 +15.6 66 +26 +26 жарко 1007.9 995.7
21 17.07 штиль 0 10 км 3/1 600 м
[Sc Ci fib]
+19.1 +14.8 76 +20 +20 1007.9 995.5
00 18.07 штиль 0 4000 м дымка 9/0
[Ci]
+16.7 +14.9 89 +17 +17 1007.7 995.2
03 18.07 штиль 0 4000 м дымка 9/1 600 м
[Sc Ac trans Ci fib]
+19.1 +15.6 80 +20 +21 1008.4 996.1 +16.5
06 18.07 В 3 10 км 8/1 600 м
[Sc Ac trans Ci fib]
+27.3 +14.0 44 +29 +34 жарко 1008.0 996.0
09 18.07 В 3 10 км 10/5 600 м
[Sc Ac As]
+29.4 +11.4 33 +30 +32 жарко 1007.7 995.7
12 18.07 С 1 20 км 10/8 600 м
[Sc diur, vesp Ac As]
+29.9 +11.3 32 +30 +31 жарко 1007.6 995.7
15 18.07 СЗ 3 4000 м в посл. час ливневой дождь 10/10 300 м
[Cb cap]
+20.3 +18.1 87 +24 +24 комфорт 1011.0 998.7 +30.2 3
18 18.07 С 3 4000 м дымка {ливн. осадки} 9/8 300 м
[Cb cap Ci fib]
+18.9 +16.7 87 +20 +20 1010.5 998.1
21 18.07 СЗ 3 4000 м дымка 10/8 300 м
[Sc diur, vesp Ci]
+18.3 +15.7 85 +19 +19 1011.3 998.8
00 19.07 СЗ 1 4000 м слаб. ливневой дождь 10/10 300 м
[Cb cap]
+18.4 +16.4 88 +20 +20 1012.4 999.9
03 19.07 штиль 0 4000 м в посл. час ливневой дождь 8/6 300 м
[Cb cap Ac trans Ci fib]
+17.9 +16.8 93 +18 +18 1013.6 1001.2 +17.9 5
06 19.07 С 2 10 км {ливн. осадки} 8/3 600 м
[Sc diur, vesp Ac trans Ci fib]
+23.4 +17.4 69 +29 +34 душно 1013.5 1001.3
09 19.07 С 2 10 км 9/3 600 м
[Cu med, cong Ac cast Ci fib]
+27.2 +16.5 52 +31 +38 душно 1013.6 1001.5
12 19.07 С 2 10 км 3/3 600 м
[Cu hum Ci fib]
+29.0 +15.4 44 +32 +40 душно 1012.9 1000.9
15 19.07 С 2 10 км 9/1 600 м
[Cu hum Ac cuf Ci fib]
+28.2 +14.1 42 +30 +31 жарко 1013.2 1001.1 +29.6
18 19.07 З 1 10 км 10/6 600 м
[Sc Ac As]
+24.1 +18.3 70 +29 +29 душно 1014.5 1002.3
21 19.07 Ю 2 10 км 10/8 600 м
[Sc Ac As]
+22.6 +18.4 77 +28 +28 душно 1015.2 1002.9
00 20.07 Ю 1 4000 м дымка 10/6 600 м
[Sc Ac As]
+21.3 +18.9 86 +26 +26 душно 1016.0 1003.6
03 20.07 штиль 0 4000 м дымка 8/5 600 м
[Sc Ac lent]
+20.6 +19.1 91 +24 +25 комфорт 1017.2 1004.8 +20.3
06 20.07 Ю 1 10 км ясно +26.9 +17.7 57 +31 +44 душно 1017.5 1005.4
09 20.07 В 2 10 км 6/3 600 м
[Cb cap Ac cuf Ci fib]
+30.4 +12.2 33 +31 +41 жарко 1017.2 1005.2
12 20.07 штиль 0 10 км 9/5 600 м
[Cb cap Ac trans Ci fib]
+31.8 +11.0 28 +32 +36 жарко 1016.8 1004.8

 

Местоположение метеостанции Ремонтное (Ростовская область, Россия): широта 46.57 долгота 43.67 высота над уровнем моря 106 м.

В архиве по умолчанию представлена погода в Ремонтном за последнюю неделю. Архивные данные за месяц целиком и за предыдущие месяцы, начиная с января 2011 года, Вы можете получить, выбрав интересующий диапазон дат из раскрывающегося списка и нажав кнопку "Ввод!".


*Определитесь, кто Вы:
робот инопланетянин человек

Внимание! Время в таблицах - всемирное. Для получения местного времени необходимо прибавить поправку, которая равна 3 ч.

Смотрите также архив погоды в соседних городах и на ближайших метеорологических станциях:

Погода в Элисте (Калмыкия, Россия) (55 км)
Погода в Дивном (Ставропольский край, Россия) (76 км)
Погода в Кетченерах (Калмыкия, Россия) (108 км)
Погода в Зимовниках (Ростовская область, Россия) (111 км)
Погода в Ики-Буруле (Калмыкия, Россия) (113 км)
Погода в Котельниково (Волгоградская область, Россия) (124 км)
Погода в Яшкуле (Калмыкия, Россия) (136 км)
Погода в Арзгире (Ставропольский край, Россия) (136 км)
Погода в Городовиковске (Калмыкия, Россия) (142 км)
Погода в Светлограде (Ставропольский край, Россия) (150 км)

Пояснения к столбцам:

Ветер - указаны скорость ветра в м/с - средняя за 10 мин, порывы в срок и между сроками (в фигурных скобках) и направление, откуда дует ветер: С - северный, СВ - северо-восточный, В - восточный, ЮВ - юго-восточный, Ю - южный, ЮЗ - юго-западный, З - западный, СЗ - северо-западный.
Видимость - горизонтальная дальность видимости в метрах или километрах. При видимости от 1 до 10 км при отсутствии осадков обычно наблюдается дымка, при ухудшении видимости до 1 км и менее - туман. В сухую погоду видимость может ухудшаться дымом, пылью или мглою.
Явления - указаны атмосферные явления, наблюдавшиеся в срок или в последний час перед сроком; фигурными скобками обозначены явления, наблюдавшиеся между сроками (за 1-3 часа до срока); квадратными скобками обозначены град или гололедные отложения с указанием их диаметра в мм.
Облачность - указаны через наклонную черту общая и нижняя облачность в баллах и высота нижней границы облаков в метрах; квадратными скобками обозначены формы облаков: Ci - перистые, Cs - перисто-слоистые, Cc - перисто-кучевые, Ac - высококучевые, As - высокослоистые, Sc - слоисто-кучевые, Ns - слоисто-дождевые, Cu - кучевые, Cb - кучево-дождевые. Подробнее классификацию облаков см. в Атласе облаков (PDF).
T - Температура воздуха - температура, измеренная на высоте 2 м над землей.
Td - Температура точки росы - температура, при понижении до которой содержащийся в воздухе водяной пар достигнет насыщения.
f - Относительная влажность воздуха - влажноcть воздуха, измеренная на высоте 2 м над землей.
Te - Эффективная температура - температура, которую ощущает одетый по сезону человек в тени. Характеристика душности погоды. При расчете учитывается влияние влажности воздуха и скорости ветра на теплоощущения человека.
Tes - Эффективная температура на солнце - температура, которую ощущает человек, с поправкой на солнечный нагрев. Характеристика знойности погоды. Зависит от высоты солнца над горизонтом, облачности и скорости ветра. Ночью, в пасмурную погоду, а также при ветре 12 м/с и более поправка равна нулю.
P - Атмосферное давление - приведенное к уровню моря атмосферное давление.
Po - Атмосферное давление - измеренное на уровне метеостанции атмосферное давление.
Tmin - Минимальная температура - минимум температуры воздуха на высоте 2 м над землей.
Tmax - Максимальная температура - максимум температуры воздуха на высоте 2 м над землей.
R - Количество осадков - Количество выпавших осадков за период времени, мм. При наведении курсора мыши на число - период времени, за который выпало указанное количество осадков.
R24 - Количество осадков - Количество выпавших осадков за 24 часа, мм.
S - Снежный покров - Высота снежного покрова, см. При наведении курсора мыши на число - состояние снежного покрова и степень покрытия местности в баллах.